Location: �clusier
(49.9361°N, 2.7869°E)
Time: 12:00:29
(UTC+00:00)

Cosmos 1452 Rocket - Pass Details

Date: 23 October 2021
Orbit: 767 x 775 km, 74.1° (Epoch: 26 November)

Event Time Altitude Azimuth Distance (km) Brightness Sun altitude
Rises 04:31:06 0° 342° (NNW) 3,266 6.6 -18.7°
Reaches altitude 10° 04:34:23 10° 3° (N) 2,335 6.1 -18.2°
Maximum altitude 04:37:46 17° 43° (NE) 1,895 6.1 -17.7°
Drops below altitude 10° 04:41:09 10° 83° (E) 2,327 7.3 -17.1°
Sets 04:44:24 0° 104° (ESE) 3,250 8.3 -16.6°
